TimeMST,TemperatureF,Dew PointF,Humidity,Sea Level PressureIn,VisibilityMPH,Wind Direction,Wind SpeedMPH,Gust SpeedMPH,PrecipitationIn,Events,Conditions,WindDirDegrees,DateUTC
12:53 AM,43.0,21.9,43,29.91,10.0,SSW,15.0,-,N/A,,Clear,200,2012-11-30 07:53:00
1:53 AM,44.1,21.9,42,29.89,10.0,North,-9999.0,-,N/A,,Clear,0,2012-11-30 08:53:00
2:53 AM,42.1,23.0,47,29.91,10.0,SW,13.8,-,N/A,,Clear,220,2012-11-30 09:53:00
3:53 AM,44.1,23.0,43,29.88,10.0,SW,18.4,-,N/A,,Clear,220,2012-11-30 10:53:00
4:53 AM,43.0,21.9,43,29.91,10.0,SSW,25.3,33.4,N/A,,Clear,210,2012-11-30 11:53:00
5:53 AM,42.1,21.9,45,29.91,10.0,SW,20.7,-,N/A,,Clear,220,2012-11-30 12:53:00
6:53 AM,41.0,23.0,49,29.92,10.0,SW,26.5,35.7,N/A,,Clear,220,2012-11-30 13:53:00
7:53 AM,41.0,24.1,51,29.91,10.0,SSW,21.9,-,N/A,,Clear,210,2012-11-30 14:53:00
8:53 AM,44.1,25.0,47,29.91,10.0,SW,16.1,21.9,N/A,,Clear,220,2012-11-30 15:53:00
9:53 AM,48.0,27.0,44,29.85,10.0,SSW,32.2,41.4,N/A,,Clear,210,2012-11-30 16:53:00
10:53 AM,51.1,28.0,41,29.82,10.0,SW,31.1,46.0,N/A,,Clear,220,2012-11-30 17:53:00
11:53 AM,52.0,27.0,38,29.78,10.0,WSW,23.0,35.7,N/A,,Clear,240,2012-11-30 18:53:00
12:53 PM,53.1,27.0,37,29.79,10.0,SW,23.0,31.1,N/A,,Clear,230,2012-11-30 19:53:00
1:53 PM,53.1,27.0,37,29.73,10.0,SW,29.9,44.9,N/A,,Clear,230,2012-11-30 20:53:00
2:53 PM,53.1,27.0,37,29.69,10.0,SW,27.6,43.7,N/A,,Clear,220,2012-11-30 21:53:00
3:53 PM,52.0,26.1,37,29.70,10.0,SW,26.5,40.3,N/A,,Clear,220,2012-11-30 22:53:00
4:53 PM,51.1,26.1,38,29.70,10.0,SW,31.1,40.3,N/A,,Clear,220,2012-11-30 23:53:00
5:53 PM,50.0,26.1,39,29.71,10.0,SW,29.9,38.0,N/A,,Clear,220,2012-12-01 00:53:00
6:53 PM,48.0,25.0,41,29.76,10.0,SW,20.7,-,N/A,,Clear,220,2012-12-01 01:53:00
7:53 PM,48.9,26.1,41,29.78,10.0,SSW,21.9,28.8,N/A,,Clear,210,2012-12-01 02:53:00
8:53 PM,48.0,26.1,42,29.76,10.0,SW,24.2,31.1,N/A,,Clear,220,2012-12-01 03:53:00
9:53 PM,48.0,26.1,42,29.75,10.0,SW,21.9,32.2,N/A,,Clear,230,2012-12-01 04:53:00
10:53 PM,46.9,26.1,44,29.74,10.0,WSW,19.6,-,N/A,,Clear,240,2012-12-01 05:53:00
11:53 PM,46.0,26.1,46,29.75,10.0,SW,20.7,32.2,N/A,,Clear,230,2012-12-01 06:53:00